Weather History for Rock Springs, WY

Change the Weather History Date:

Thursday, November 7, 2013

  Actual Average Record
Temperature  
Mean Temperature 41 °F 35 °F  
Max Temperature 52 °F 45 °F 64 °F (1980)
Min Temperature 30 °F 25 °F 0 °F (1971)
Degree Days  
Heating Degree Days 24 30  
Month to date heating degree days 219 198  
Since 1 July heating degree days 1160 1165  
Cooling Degree Days 0 0  
Month to date cooling degree days 0 0  
Year to date cooling degree days 517 286  
Moisture  
Dew Point 24 °F    
Average Humidity 52    
Maximum Humidity 72    
Minimum Humidity 32    
Precipitation  
Precipitation 0.00 in 0.02 in 0.44 in (1960)
Month to date precipitation T 0.14  
Year to date precipitation 4.43 7.71  
Sea Level Pressure  
Sea Level Pressure 30.23 in    
Wind  
Wind Speed 10 mph (SSW)    
Max Wind Speed 20 mph    
Max Gust Speed 24 mph    
Visibility 10 miles    
Events      
T = Trace of Precipitation, MM = Missing Value Source: NWS Daily Summary

Daily Weather History Graph

Daily Weather History Graph

Search for Another Location

Airport:

Trip Planner

Search our weather history database for the weather conditions in past years. The results will help you decide how hot, cold, wet, or windy it might be!

Date:

Astronomy

Nov. 07, 2013 Rise Set
Actual Time 6:55 AM MST 5:03 PM MST
Civil Twilight 6:26 AM MST 5:32 PM MST
Nautical Twilight 5:53 AM MST 6:05 PM MST
Astronomical Twilight 5:20 AM MST 6:38 PM MST
Moon 11:07 AM MST (11/7) 9:18 PM MST (11/7)
Length of Visible Light 11h 06m
Length of Day
10h 07m
Waxing Crescent, 23% of the Moon is Illuminated
Nov 7
Waxing Crescent
Nov 9
First Quarter
Nov 17
Full
Nov 25
Last Quarter
Dec 2
New

Hourly Weather History & Observations

Time (MST) Temp. Windchill Dew Point Humidity Pressure Visibility Wind Dir Wind Speed Gust Speed Precip Events Conditions
12:54 AM 36.0 °F 26.3 °F 24.1 °F 62% 30.40 in 10.0 mi WSW 16.1 mph - N/A   Overcast
1:54 AM 36.0 °F 27.1 °F 24.1 °F 62% 30.38 in 10.0 mi WSW 13.8 mph - N/A   Overcast
2:54 AM 36.0 °F 27.5 °F 25.0 °F 64% 30.39 in 10.0 mi WSW 12.7 mph - N/A   Overcast
3:54 AM 36.0 °F 30.3 °F 25.0 °F 64% 30.39 in 10.0 mi SSW 6.9 mph - N/A   Overcast
4:54 AM 34.0 °F 26.6 °F 24.1 °F 67% 30.43 in 10.0 mi SSW 9.2 mph - N/A   Mostly Cloudy
6:54 AM 30.0 °F 23.2 °F 23.0 °F 75% 30.45 in 10.0 mi South 6.9 mph - N/A   Clear
7:54 AM 33.1 °F 26.1 °F 24.1 °F 70% 30.44 in 10.0 mi SSE 8.1 mph - N/A   Partly Cloudy
8:54 AM 37.9 °F 31.5 °F 23.0 °F 55% 30.41 in 10.0 mi SE 9.2 mph - N/A   Mostly Cloudy
9:54 AM 41.0 °F 36.4 °F 24.1 °F 51% 30.38 in 10.0 mi SSE 6.9 mph - N/A   Overcast
10:54 AM 43.0 °F 37.7 °F 23.0 °F 45% 30.35 in 10.0 mi SSE 9.2 mph - N/A   Mostly Cloudy
11:54 AM 44.1 °F 38.6 °F 21.9 °F 42% 30.29 in 10.0 mi SSE 10.4 mph - N/A   Partly Cloudy
12:54 PM 48.0 °F - 23.0 °F 37% 30.21 in 10.0 mi South 8.1 mph - N/A   Clear
1:54 PM 50.0 °F - 24.1 °F 36% 30.17 in 10.0 mi SSW 6.9 mph - N/A   Overcast
2:54 PM 51.1 °F - 24.1 °F 35% 30.13 in 10.0 mi WSW 6.9 mph - N/A   Partly Cloudy
3:54 PM 51.1 °F - 23.0 °F 33% 30.11 in 10.0 mi WSW 15.0 mph - N/A   Mostly Cloudy
4:54 PM 46.0 °F 40.6 °F 24.1 °F 42% 30.14 in 10.0 mi WSW 11.5 mph - N/A   Partly Cloudy
5:54 PM 46.0 °F 41.0 °F 24.1 °F 42% 30.14 in 10.0 mi WSW 10.4 mph - N/A   Overcast
6:54 PM 44.1 °F 39.5 °F 25.0 °F 47% 30.13 in 10.0 mi SW 8.1 mph - N/A   Overcast
7:54 PM 42.1 °F 37.1 °F 25.0 °F 51% 30.09 in 10.0 mi SSW 8.1 mph - N/A   Scattered Clouds
8:54 PM 39.9 °F 33.4 °F 24.1 °F 53% 30.04 in 10.0 mi SSE 10.4 mph - N/A   Overcast
9:54 PM 41.0 °F 32.8 °F 21.9 °F 47% 29.97 in 10.0 mi SSE 16.1 mph - N/A   Mostly Cloudy
10:54 PM 42.1 °F 38.4 °F 21.0 °F 43% 29.93 in 10.0 mi SSW 5.8 mph - N/A   Overcast
11:54 PM 42.1 °F 35.7 °F 19.9 °F 41% 29.92 in 10.0 mi WSW 11.5 mph - N/A   Mostly Cloudy